Theta_e
317 320 324 329 341 345 348 347 345 347 344 345 346 351 348 343 346 356 350 350 348 346 346 346 339 338 337 336 334 333 333 333 333 333 333 334 335 337 337 338 339 342 345 346 343 339 337 337 339
317 323 323 331 339 341 349 345 346 345 343 344 344 345 345 345 340 341 351 350 347 344 344 345 336 335 333 332 333 333 335 335 337 338 338 339 338 335 333 332 333 336 340 338 334 333 335 336 336
320 321 328 338 340 341 345 344 342 343 342 343 342 340 340 342 338 345 350 349 347 345 345 345 336 334 334 334 335 338 339 339 337 335 336 338 335 331 330 329 330 332 331 330 329 327 327 327 329
318 321 324 333 339 343 343 342 341 342 343 345 347 351 345 345 345 348 351 348 347 346 346 339 336 335 336 339 340 339 335 335 332 331 334 332 326 326 326 326 326 326 326 325 324 323 322 322 322
317 322 329 331 335 339 341 341 341 345 344 346 348 356 356 350 350 351 349 347 345 346 347 345 337 338 339 336 336 331 331 331 329 328 327 325 322 320 318 318 318 318 317 317 317 315 314 314 316
321 322 330 330 333 341 341 342 342 343 343 345 349 356 356 352 352 349 347 346 344 346 347 346 341 335 330 330 329 330 331 329 327 322 316 315 314 313 313 314 314 314 315 316 316 315 314 312 313
322 326 329 326 332 339 341 341 343 343 342 347 350 354 355 353 351 347 347 347 347 346 347 347 342 332 329 328 328 328 328 324 317 316 317 317 317 315 314 315 315 316 316 317 316 316 316 316 314
318 323 325 324 331 329 337 341 341 341 344 347 348 352 358 354 350 348 346 346 347 347 347 347 337 335 333 331 326 323 318 317 318 319 318 318 318 317 317 321 317 317 317 317 317 317 317 318 318
316 325 327 326 328 325 335 340 336 337 346 349 347 347 349 352 350 347 346 346 346 347 347 336 335 334 332 330 323 320 319 319 319 320 320 319 320 319 322 317 317 317 317 317 315 315 316 317 319
320 326 327 324 324 323 334 338 338 338 342 350 348 348 352 352 351 345 344 344 346 346 338 332 334 332 332 331 329 325 321 320 320 321 320 319 317 317 317 317 318 319 319 317 316 317 318 318 317
319 324 322 321 322 322 329 336 336 338 342 348 349 353 353 352 352 344 343 344 345 337 331 331 334 335 332 329 326 324 321 321 322 321 320 319 316 316 318 321 322 321 316 316 315 315 314 316 316
320 320 319 319 317 320 331 335 336 338 340 341 346 350 352 353 350 344 343 345 340 332 330 330 331 331 331 328 327 323 322 322 322 321 320 316 317 315 316 318 318 316 315 314 313 312 314 314 314
320 320 318 318 316 322 330 336 336 337 337 338 345 350 352 351 348 343 343 345 334 331 330 328 328 328 329 328 326 323 321 322 322 320 317 315 314 312 314 311 314 315 314 314 313 312 313 313 313
318 318 319 318 322 331 335 334 333 336 335 339 346 351 350 351 347 343 344 339 331 329 329 326 325 323 323 323 323 322 321 321 319 316 315 314 310 311 312 313 314 315 314 314 313 312 312 312 312
317 321 321 319 318 320 327 329 334 331 336 343 345 348 350 349 346 344 341 337 331 329 326 326 322 321 322 322 322 322 320 319 317 315 314 312 311 312 312 314 315 314 314 314 313 312 311 311 311
319 320 321 319 320 318 324 324 320 321 340 344 347 348 351 347 343 342 338 332 329 327 325 323 322 322 321 321 320 319 318 317 315 314 312 311 312 312 313 315 315 314 313 312 311 311 311 311 311
319 321 320 320 320 322 321 326 328 323 334 341 349 350 351 343 339 335 333 330 327 326 324 324 323 321 319 319 318 318 316 315 314 313 313 313 313 313 314 315 314 313 312 312 311 311 311 311 312
322 321 320 321 320 328 328 331 330 328 333 335 338 348 344 341 339 333 331 328 326 324 324 324 321 319 318 318 318 320 321 320 315 314 315 313 315 315 315 314 313 312 312 311 310 310 310 310 311
318 320 323 321 321 329 329 331 331 333 332 328 334 337 338 337 333 331 329 326 325 323 323 321 321 320 322 322 323 323 321 319 316 316 315 314 314 315 314 313 312 312 311 310 310 310 309 309 309
320 324 323 322 321 328 329 329 327 332 335 333 331 333 335 335 333 330 327 326 326 326 325 323 323 321 322 323 322 321 319 317 315 316 315 314 313 313 312 311 311 311 310 310 309 309 309 309 308
323 323 323 323 322 323 325 327 329 328 335 336 333 331 334 334 332 330 327 326 326 326 321 322 322 320 321 322 322 321 317 316 316 316 316 315 311 311 311 310 310 310 310 309 308 308 308 308 308
325 321 321 323 325 326 324 327 327 328 333 338 337 336 334 332 331 330 327 326 327 324 323 323 323 322 322 323 322 319 316 317 316 315 312 311 311 311 310 310 309 309 309 308 307 306 307 308 307
324 323 324 325 326 325 327 328 327 328 331 337 338 336 334 333 332 331 329 329 327 325 325 325 324 324 323 320 318 317 317 314 312 311 311 311 311 310 308 308 308 308 307 306 305 308 308 308 307
322 323 324 324 325 327 328 330 327 330 331 336 336 333 334 332 324 322 320 317 315 318 318 319 318 315 313 313 312 311 312 311 312 310 310 310 309 309 308 307 307 307 307 308 307 308 308 308 308
325 326 324 323 326 327 326 330 330 328 331 334 335 330 323 321 318 315 313 312 313 312 311 311 310 309 310 311 311 311 311 311 310 309 308 308 308 308 308 308 307 307 308 308 308 308 308 307 306
325 325 325 326 327 326 325 330 330 334 335 334 324 320 318 316 315 314 313 310 309 308 307 307 307 307 308 308 309 309 309 308 307 307 307 308 308 308 308 308 308 308 308 308 309 307 306 306 307
325 327 321 328 325 328 327 330 325 334 336 329 322 320 317 315 313 311 309 309 308 307 306 306 306 306 307 307 307 308 307 307 307 307 307 307 307 307 307 308 308 308 308 308 308 307 306 305 307
326 323 330 329 333 331 328 329 330 331 334 326 323 320 316 313 311 311 310 308 306 306 306 306 305 305 305 306 306 306 307 307 307 307 308 308 308 308 308 308 309 309 309 308 308 307 307 307 306
327 327 328 329 329 332 332 329 326 326 328 327 320 317 314 312 312 312 310 307 306 306 306 305 305 305 305 306 306 307 307 307 308 308 308 308 308 308 308 309 309 309 309 308 307 308 307 305 306
326 327 328 326 327 329 330 330 319 319 321 320 318 315 313 313 314 310 308 308 307 306 306 306 305 305 306 306 307 307 307 308 308 308 308 308 308 309 309 309 309 309 309 307 307 308 306 305 305
Wind_Speed
8 3 3 1 2 2 3 3 1 5 1 3 4 2 7 5 5 1 3 3 11 11 10 9 12 14 15 18 20 21 21 21 20 20 20 19 18 18 17 16 14 13 12 12 12 11 11 10 10
6 4 1 1 2 4 2 1 4 4 5 8 7 8 3 3 1 1 8 9 12 12 12 12 13 16 17 19 20 20 21 22 21 21 20 19 18 17 16 15 15 14 14 14 14 13 12 12 12
3 3 2 2 2 4 3 6 6 6 12 3 5 3 3 2 5 3 7 15 14 14 12 14 15 16 18 19 20 21 21 21 21 19 19 19 18 17 17 17 17 16 17 17 17 16 16 15 15
2 3 2 2 4 2 0 12 7 12 6 6 3 3 4 1 7 10 15 16 15 14 13 16 16 18 18 19 20 21 20 21 20 19 19 19 19 19 18 17 16 15 16 16 15 15 15 15 15
3 0 2 2 1 1 2 13 14 11 4 7 9 5 3 2 9 15 19 17 16 15 14 14 17 18 18 18 20 20 21 21 22 23 21 19 18 17 17 17 17 17 17 17 17 17 16 16 16
2 1 2 2 0 1 3 12 12 9 5 4 7 7 4 6 11 18 18 16 15 16 15 15 17 18 19 20 21 21 22 22 20 20 20 21 19 19 19 18 17 17 18 18 17 18 19 19 18
2 2 2 3 1 2 4 14 13 11 4 7 5 10 3 9 11 16 15 15 15 15 15 16 17 20 23 23 23 23 22 21 22 22 20 19 19 19 18 17 16 15 16 17 17 17 18 20 19
2 2 4 3 2 1 3 13 10 13 7 2 6 5 6 15 19 17 16 15 14 14 16 18 21 21 20 20 22 22 22 22 20 18 16 15 15 15 15 15 14 14 15 17 19 19 19 20 20
1 2 2 5 5 1 2 7 8 4 4 6 8 3 5 24 21 19 18 16 15 15 16 20 22 21 20 20 22 22 20 19 17 15 14 13 13 12 11 13 14 15 17 19 22 23 24 24 19
1 0 2 4 5 3 5 10 10 8 11 13 8 4 21 26 24 23 22 21 20 19 20 22 23 22 20 18 18 18 18 16 15 13 11 11 10 10 10 12 14 15 17 19 21 20 21 19 20
2 1 2 3 7 5 7 8 8 8 13 18 20 15 22 26 25 24 24 24 25 23 21 20 19 18 16 15 16 15 16 14 12 10 9 9 10 10 11 10 11 12 15 16 19 20 20 21 21
2 5 4 2 1 5 7 6 8 15 15 19 15 19 23 22 24 27 23 20 19 18 19 17 16 19 16 15 12 13 11 10 9 7 7 8 9 10 11 10 10 11 14 17 19 21 22 22 22
2 5 4 8 2 6 6 11 6 19 11 6 13 18 23 21 25 22 21 18 17 18 13 12 12 13 15 17 14 13 12 10 8 7 8 8 10 10 10 10 9 12 14 16 19 22 23 24 24
4 6 10 2 2 3 7 6 6 14 15 8 17 21 21 22 26 21 19 20 20 16 13 13 14 15 14 14 13 11 11 8 6 5 6 9 9 10 10 10 11 14 15 17 20 22 22 24 25
3 7 6 9 6 2 1 4 9 6 14 14 17 19 19 20 23 21 22 17 15 16 21 17 17 14 12 14 11 11 9 6 4 4 6 7 7 9 10 10 13 15 16 17 19 21 22 24 25
3 2 4 8 13 3 2 4 7 15 9 17 16 14 14 13 17 16 16 17 18 13 12 16 15 13 13 11 10 7 4 2 2 2 3 5 9 9 10 11 12 15 16 16 18 20 23 24 24
5 2 4 2 8 5 2 6 17 13 9 13 10 11 12 12 14 15 17 19 25 27 19 16 13 11 8 6 4 4 3 5 5 5 6 8 10 11 11 11 13 16 15 16 18 20 21 23 23
1 1 2 3 7 10 6 8 11 12 2 2 5 8 11 13 10 14 17 20 24 25 21 17 13 10 9 9 9 13 15 9 10 6 5 9 9 11 10 11 14 14 14 17 19 19 20 20 19
3 2 2 2 5 3 5 7 12 9 11 7 2 7 8 10 13 16 19 22 22 23 20 17 14 14 11 12 13 16 26 17 13 8 10 11 12 11 11 14 16 15 16 18 17 18 17 18 19
4 2 5 1 5 2 2 6 5 13 10 9 8 6 8 11 12 18 21 19 19 19 20 20 15 5 7 13 15 16 20 15 14 11 12 12 13 13 14 16 16 16 19 18 17 16 16 16 18
3 5 4 4 5 2 4 3 3 5 9 11 12 6 7 9 12 15 19 17 17 18 22 13 10 5 11 16 19 19 19 15 11 11 12 10 13 15 16 16 15 16 16 15 16 17 15 14 19
3 3 3 4 5 9 2 7 1 6 8 12 11 9 7 10 12 15 20 18 15 17 5 4 1 8 11 15 15 15 15 11 9 10 9 13 13 14 13 14 15 15 13 14 15 15 14 13 14
4 5 4 4 5 4 1 4 2 4 4 7 8 7 8 9 11 13 15 12 10 6 5 8 5 7 9 11 10 10 9 7 6 9 12 14 13 13 13 14 14 13 13 12 14 12 13 12 11
1 4 2 1 1 4 3 3 1 2 3 2 6 7 9 12 13 15 14 13 12 10 8 6 3 4 3 2 2 4 5 8 10 13 15 17 17 14 11 14 12 10 10 11 13 14 15 14 12
10 10 8 3 5 5 2 4 3 1 3 1 7 9 10 11 12 11 14 13 12 12 11 8 8 8 7 6 6 7 8 10 12 15 15 15 14 12 12 13 10 10 13 13 13 14 15 12 12
6 3 5 8 6 11 3 4 2 3 6 10 11 10 11 11 10 11 12 11 10 10 11 10 11 10 9 8 7 7 10 12 14 13 13 12 11 12 12 11 11 12 12 12 10 12 12 12 11
2 2 2 2 2 5 2 1 4 4 7 8 9 10 11 10 11 10 9 10 10 12 13 14 13 11 11 13 13 13 13 13 12 12 10 11 12 12 12 12 12 12 11 10 10 11 12 11 11
4 2 2 2 5 9 4 5 6 7 8 7 7 9 10 10 10 9 9 11 11 12 11 13 14 13 12 12 11 10 9 10 11 12 13 13 13 13 13 12 11 10 9 9 8 8 11 11 10
2 3 4 1 3 5 7 5 3 6 7 8 8 10 10 8 6 7 9 9 12 14 15 15 13 12 10 9 9 10 11 11 11 12 12 12 12 11 11 10 10 9 7 8 7 7 8 10 10
2 2 2 3 4 4 4 7 9 7 5 10 11 9 7 7 6 5 7 17 15 15 14 12 10 8 8 9 11 11 10 11 11 13 12 11 12 11 10 9 8 8 7 8 7 7 6 9 10
Wind_Direction
359 19 123 207 181 79 106 119 269 183 132 104 153 188 155 141 167 76 111 132 132 130 129 126 128 128 121 114 110 109 107 104 100 97 94 92 90 87 83 80 73 69 60 51 44 35 26 19 12
352 101 64 103 57 91 123 217 201 109 95 117 97 94 354 224 203 266 146 152 142 140 137 134 133 126 120 115 110 108 105 102 100 97 97 96 91 84 78 73 69 62 55 49 41 34 27 21 14
95 124 286 60 88 74 134 186 149 129 138 138 133 231 198 213 184 187 149 154 149 141 141 137 135 127 122 118 114 109 105 103 101 99 97 93 87 80 75 71 68 65 61 54 50 47 40 33 27
162 146 107 57 83 107 348 168 155 144 176 229 209 208 183 263 169 169 155 153 147 144 143 139 141 130 122 118 116 112 108 106 100 96 97 92 85 79 71 66 62 55 49 43 37 31 24 17 11
41 171 102 88 33 297 162 176 170 170 172 182 192 157 126 50 130 145 152 156 151 145 141 141 139 130 126 124 119 115 112 108 99 94 94 88 82 75 71 66 61 55 45 40 33 26 19 11 4
160 260 171 119 314 295 145 175 188 206 210 162 183 166 122 152 147 151 153 154 153 147 143 141 135 130 126 125 122 115 112 112 106 100 97 92 82 77 71 64 58 50 42 33 28 21 13 10 4
211 138 117 124 178 229 161 165 186 193 226 218 156 156 132 179 161 153 153 154 151 151 145 142 135 132 126 124 124 120 117 116 112 107 99 90 81 74 66 58 48 39 29 21 16 8 1 359 356
136 95 146 136 164 111 137 171 195 198 210 96 175 189 177 180 158 153 154 156 154 156 154 149 147 140 134 131 129 124 121 119 114 109 103 93 81 71 61 51 37 25 15 8 2 357 350 345 342
166 145 149 142 187 136 153 196 160 208 196 187 193 196 164 152 153 153 159 160 162 164 162 156 154 149 142 137 133 130 129 130 124 115 104 87 71 58 53 31 19 10 4 358 352 347 341 337 336
210 78 187 195 178 226 204 212 164 178 197 211 195 116 146 153 164 170 174 174 175 173 169 166 163 158 152 148 146 139 134 129 127 115 93 73 58 48 36 22 13 6 357 352 348 341 336 334 327
170 322 215 271 245 218 211 213 186 187 205 213 204 165 162 165 175 182 184 184 179 176 170 170 167 163 160 156 147 139 138 132 121 106 89 71 54 39 27 19 12 4 353 352 346 339 334 324 318
254 252 251 325 260 169 183 178 198 194 214 219 206 171 172 175 182 187 184 182 177 171 171 172 173 175 174 164 153 148 138 139 129 115 80 53 42 29 22 12 4 2 354 348 345 339 331 326 320
265 327 324 306 298 194 173 197 206 219 222 201 183 172 184 186 186 183 183 179 175 172 164 161 170 173 174 175 172 161 155 143 129 89 56 31 22 15 11 4 4 355 350 346 342 337 329 322 317
325 306 312 1 115 184 161 177 207 231 217 196 181 189 193 191 187 173 175 179 174 166 162 166 164 168 175 173 157 159 147 136 108 85 42 14 8 1 354 351 350 347 345 341 336 330 324 317 314
335 342 344 30 4 10 236 190 222 319 200 197 201 200 192 194 182 181 187 171 160 152 166 172 167 172 170 152 161 158 145 141 107 54 6 352 347 339 339 340 341 339 337 335 331 327 322 316 312
25 81 354 37 4 55 304 275 22 341 202 215 208 198 192 183 176 179 162 147 142 150 155 151 157 166 158 159 149 145 124 70 14 339 360 341 331 329 333 331 330 331 328 328 329 327 322 316 315
16 356 333 53 38 338 341 336 341 341 262 230 213 194 177 152 166 159 145 140 163 170 157 152 152 151 141 119 105 71 29 329 298 330 338 327 320 316 321 322 322 325 324 328 329 325 320 316 314
318 8 330 344 20 36 67 26 5 10 20 200 184 184 155 165 157 125 138 137 146 142 141 146 138 109 74 38 11 338 288 287 282 289 302 313 321 318 319 317 319 325 324 327 326 324 320 314 314
127 101 345 334 23 84 75 71 37 27 35 19 234 192 145 144 133 143 132 127 128 135 132 116 103 87 23 324 311 298 299 284 264 276 308 321 323 319 324 323 325 326 326 325 323 323 320 318 319
133 84 26 258 25 231 132 57 46 36 27 2 324 252 161 135 135 136 129 127 133 127 115 101 114 125 292 274 270 282 286 299 296 316 320 319 317 326 330 331 330 326 322 321 325 327 320 317 323
68 28 358 326 342 85 315 229 54 32 45 33 30 58 80 122 129 135 132 129 129 131 124 83 43 188 224 251 268 277 288 282 301 318 323 320 325 331 335 331 329 323 320 323 325 328 323 317 318
34 342 293 304 306 306 349 307 36 9 35 43 37 44 86 118 132 143 145 136 135 137 79 332 338 271 244 255 268 279 283 294 309 318 312 318 326 329 333 327 328 329 323 322 327 326 317 317 314
18 16 357 323 291 302 111 267 89 358 17 36 43 60 86 109 129 132 131 115 109 129 317 288 277 239 245 277 284 283 285 298 316 320 320 319 317 324 337 346 344 334 327 327 327 326 327 322 308
292 278 296 118 256 260 48 322 289 359 355 33 74 84 104 105 88 81 70 68 54 53 54 40 65 70 57 12 341 319 334 339 329 323 319 318 320 324 341 351 352 337 330 333 328 324 326 316 310
351 330 316 294 293 298 54 253 339 340 355 72 125 82 69 80 73 71 72 69 71 67 64 59 41 24 2 357 345 334 342 333 325 320 318 324 330 331 330 335 326 322 327 326 326 330 331 324 320
340 322 302 304 303 307 173 240 100 34 90 99 92 92 81 78 83 88 81 72 57 39 29 25 24 9 352 347 334 341 341 329 322 319 326 326 312 310 313 307 308 319 325 330 334 335 334 323 322
25 340 354 280 227 270 304 172 176 144 124 117 100 94 93 100 98 88 74 49 33 25 16 12 8 357 351 349 349 343 342 336 328 323 306 297 302 302 299 305 310 314 321 328 334 344 347 344 352
36 85 293 353 298 300 286 291 295 216 197 154 128 114 114 112 93 67 41 26 11 9 355 7 4 354 348 346 342 336 329 319 314 310 303 297 298 301 302 303 300 306 320 328 330 348 1 7 2
62 49 42 321 284 295 306 303 16 307 238 174 138 129 115 91 69 51 35 17 14 354 354 360 354 348 344 339 334 321 318 318 315 311 311 309 309 308 305 304 305 307 312 324 325 346 358 5 5
82 75 51 340 308 287 287 286 359 339 153 141 132 123 101 73 29 27 20 14 358 352 346 338 334 338 338 330 323 321 324 322 321 318 316 309 309 312 312 311 307 310 319 331 326 328 335 353 351